, AK

(GMT )
Anchorage

Weather History for PANC - October, 2013

Change the Weather History Date:

Friday, October 25, 2013

  Actual Average Record
Temperature  
Mean Temperature 39 °F 30 °F  
Max Temperature 48 °F 36 °F 50 °F (2002)
Min Temperature 29 °F 24 °F 0 °F (1956)
Degree Days  
Heating Degree Days 26    
Month to date heating degree days 530  
Since 1 July heating degree days 1378  
Cooling Degree Days 0    
Month to date cooling degree days 0  
Year to date cooling degree days 21  
Moisture  
Dew Point 31 °F    
Average Humidity 71    
Maximum Humidity 89    
Minimum Humidity 53    
Precipitation  
Precipitation T in 0.04 in 0.62 in (1976)
Month to date precipitation 1.84 1.76  
Year to date precipitation 21.05 14.04  
Snow  
Snow 0.00 in 0.30 in 6.70 in (1976)
Month to date snowfall T 5.9  
Since 1 July snowfall T 6.3  
Since 1 September snowfall T 6.3  
Snow Depth 0.00 in    
Sea Level Pressure  
Sea Level Pressure 29.93 in    
Wind  
Wind Speed 4 mph (NNW)    
Max Wind Speed 12 mph    
Max Gust Speed -    
Visibility 10 miles    
Events      
T = Trace of Precipitation, MM = Missing Value Source: NWS Daily Summary

Daily Weather History Graph

Daily Weather History Graph

Search for Another Location

Airport or City:

Astronomy

Oct. 25, 2013 Rise Set
Actual Time 9:09 AM AKDT 6:17 PM AKDT
Civil Twilight 8:24 AM AKDT 7:02 PM AKDT
Nautical Twilight 7:33 AM AKDT 7:53 PM AKDT
Astronomical Twilight 6:43 AM AKDT 8:42 PM AKDT
Moon 11:23 PM AKDT (10/25) 3:23 PM AKDT (10/25)
Length of Visible Light 10h 38m
Length of Day
9h 07m
Waning Gibbous, 61% of the Moon is Illuminated
Oct 25
Waning Gibbous
Oct 26
Last Quarter
Nov 3
New
Nov 9
First Quarter
Nov 17
Full

Hourly Weather History & Observations

Time (AKDT) Temp. Windchill Dew Point Humidity Pressure Visibility Wind Dir Wind Speed Gust Speed Precip Events Conditions
12:53 AM 37.9 °F 30.5 °F 30.9 °F 76% 29.75 in 10.0 mi North 11.5 mph - N/A   Overcast
1:53 AM 37.9 °F - 30.0 °F 73% 29.76 in 10.0 mi Calm Calm - N/A   Overcast
2:53 AM 37.0 °F - 30.0 °F 76% 29.78 in 10.0 mi Calm Calm - N/A   Overcast
3:53 AM 34.0 °F 31.0 °F 28.9 °F 82% 29.79 in 10.0 mi South 3.5 mph - N/A   Overcast
4:53 AM 35.1 °F 27.9 °F 30.0 °F 82% 29.81 in 10.0 mi North 9.2 mph - N/A   Overcast
5:53 AM 36.0 °F 29.6 °F 30.9 °F 82% 29.83 in 10.0 mi NNW 8.1 mph - N/A   Mostly Cloudy
6:53 AM 34.0 °F 28.8 °F 30.0 °F 85% 29.84 in 10.0 mi East 5.8 mph - N/A   Scattered Clouds
7:53 AM 33.1 °F - 28.9 °F 85% 29.85 in 10.0 mi Calm Calm - N/A   Scattered Clouds
8:53 AM 35.1 °F 32.2 °F 30.9 °F 85% 29.87 in 10.0 mi WNW 3.5 mph - N/A   Partly Cloudy
9:53 AM 32.0 °F 26.4 °F 28.9 °F 88% 29.89 in 10.0 mi East 5.8 mph - N/A   Partly Cloudy
10:53 AM 36.0 °F 32.1 °F 30.9 °F 82% 29.91 in 10.0 mi East 4.6 mph - N/A   Partly Cloudy
11:53 AM 39.9 °F - 33.1 °F 77% 29.92 in 10.0 mi Calm Calm - N/A   Partly Cloudy
12:53 PM 44.1 °F - 32.0 °F 63% 29.94 in 10.0 mi Calm Calm - N/A   Scattered Clouds
1:53 PM 45.0 °F 42.6 °F 28.9 °F 53% 29.95 in 10.0 mi East 4.6 mph - N/A   Scattered Clouds
2:53 PM 48.0 °F - 28.9 °F 48% 29.96 in 10.0 mi Calm Calm - N/A   Scattered Clouds
3:53 PM 46.0 °F 44.8 °F 32.0 °F 58% 29.96 in 10.0 mi WNW 3.5 mph - N/A   Scattered Clouds
4:53 PM 42.1 °F 39.2 °F 34.0 °F 73% 29.98 in 10.0 mi WNW 4.6 mph - N/A   Mostly Cloudy
5:53 PM 42.1 °F 40.2 °F 36.0 °F 79% 30.01 in 10.0 mi NW 3.5 mph - N/A   Mostly Cloudy
6:53 PM 39.9 °F 37.8 °F 33.1 °F 77% 30.02 in 10.0 mi SW 3.5 mph - N/A   Mostly Cloudy
7:53 PM 37.9 °F - 33.1 °F 83% 30.05 in 10.0 mi Calm Calm - N/A   Mostly Cloudy
8:53 PM 39.9 °F - 34.0 °F 79% 30.09 in 10.0 mi Calm Calm - N/A   Overcast
9:53 PM 37.9 °F 35.5 °F 33.1 °F 83% 30.10 in 10.0 mi East 3.5 mph - N/A   Overcast
10:53 PM 37.9 °F 35.5 °F 33.1 °F 83% 30.14 in 10.0 mi West 3.5 mph - N/A   Mostly Cloudy
11:53 PM 39.9 °F - 35.1 °F 83% 30.17 in 10.0 mi Calm Calm - N/A   Mostly Cloudy